Date String (YYYY-MM-DD hh:mm:ss) UTC,Instrument flags,Ambient pressure (hPa),Sample flow (lpm),Bypass flow (lpm),Sample temperature (°C),Ambient temperature (°C),ASC tube jacket temperature (°C),LED temperature (°C),Box temperature (°C),Sample RH (%),Span deviation,Mass concentration (μg/m³),Mass concentration (μg/m³),Mass concentration (μg/m³)
DateTimeUTC,F1_M11,P_M11,Q1_M11,Q2_M11,T1_M11,T2_M11,T3_M11,T4_M11,T5_M11,U1_M11,ZSPAN_M11,X0_M11,X2_M11,X1_M11
2022-09-01 15:00:00,,0829.6,5.00,0.00,30.4,29.3,00.0,39.1,32.2,20.2,0000.0,0016.25,0005.81,0004.81
2022-09-01 15:01:00,,0829.5,5.00,0.00,30.4,28.5,00.0,39.1,32.2,20.2,0000.0,0016.34,0005.83,0004.81
2022-09-01 15:02:00,,0829.5,4.99,0.00,30.3,27.3,00.0,39.0,32.0,20.2,0000.0,0016.16,0005.87,0004.82
2022-09-01 15:03:00,,0829.5,4.99,0.00,30.3,27.2,00.0,39.0,32.0,20.3,0000.0,0014.87,0005.87,0004.82
2022-09-01 15:04:00,,0829.5,5.00,0.00,30.2,27.5,00.0,39.0,31.9,20.3,0000.0,0013.98,0005.88,0004.81
2022-09-01 15:05:00,,0829.5,5.01,0.00,30.2,27.8,00.0,38.9,31.9,20.0,0000.0,0014.34,0005.84,0004.80
2022-09-01 15:06:00,,0829.5,4.99,0.00,30.2,28.0,00.0,38.9,31.9,19.8,0000.0,0015.01,0005.85,0004.79
2022-09-01 15:07:00,,0829.6,5.00,0.00,30.1,28.3,00.0,38.9,31.9,19.3,0000.0,0015.28,0005.77,0004.78
2022-09-01 15:08:00,,0829.5,5.01,0.00,30.1,28.5,00.0,38.9,31.9,19.4,0000.0,0014.65,0005.70,0004.76
2022-09-01 15:09:00,,0829.5,5.01,0.00,30.2,28.7,00.0,38.9,32.0,20.0,0000.0,0013.83,0005.67,0004.75
2022-09-01 15:10:00,,0829.5,5.00,0.00,30.2,28.8,00.0,38.9,32.0,20.0,0000.0,0012.78,0005.65,0004.74
2022-09-01 15:11:00,,0829.6,4.98,0.00,30.2,28.9,00.0,38.9,32.0,20.6,0000.0,0013.14,0005.67,0004.75
2022-09-01 15:12:00,,0829.5,5.00,0.00,30.2,29.0,00.0,39.0,32.0,22.0,0000.0,0013.65,0005.69,0004.76
2022-09-01 15:13:00,,0829.5,5.00,0.00,30.2,29.1,00.0,39.0,32.1,22.2,0000.0,0013.85,0005.69,0004.77
2022-09-01 15:14:00,,0829.5,5.00,0.00,30.3,29.1,00.0,39.0,32.1,22.0,0000.0,0013.93,0005.72,0004.79
2022-09-01 15:15:00,,0829.6,5.01,0.00,30.3,29.2,00.0,39.0,32.1,22.2,0000.0,0013.98,0005.72,0004.80
2022-09-01 15:16:00,,0829.6,5.00,0.00,30.3,29.0,00.0,39.0,32.2,22.1,0000.0,0013.59,0005.75,0004.81
2022-09-01 15:17:00,,0829.5,5.00,0.00,30.3,27.8,00.0,39.0,32.1,22.0,0000.0,0013.07,0005.77,0004.84
2022-09-01 15:18:00,,0829.5,4.99,0.00,30.2,27.1,00.0,39.0,32.0,22.0,0000.0,0013.10,0005.87,0004.87
2022-09-01 15:19:00,,0829.5,5.00,0.00,30.2,27.3,00.0,38.9,31.9,22.4,0000.0,0013.88,0005.97,0004.90
2022-09-01 15:20:00,,0829.5,5.00,0.00,30.1,27.6,00.0,38.9,31.8,22.6,0000.0,0013.73,0006.06,0004.94
2022-09-01 15:21:00,,0829.5,4.99,0.00,30.1,27.9,00.0,38.9,31.8,22.8,0000.0,0013.90,0006.10,0004.96
2022-09-01 15:22:00,,0829.5,5.01,0.00,30.1,28.2,00.0,38.9,31.9,22.7,0000.0,0014.17,0006.13,0004.98
2022-09-01 15:23:00,,0829.5,5.00,0.00,30.1,28.4,00.0,38.8,31.9,22.8,0000.0,0013.92,0006.19,0005.02
2022-09-01 15:24:00,,0829.5,5.00,0.00,30.1,28.6,00.0,38.9,31.9,22.9,0000.0,0013.97,0006.23,0005.05
2022-09-01 15:25:00,,0829.5,5.01,0.00,30.1,28.7,00.0,38.9,31.9,22.9,0000.0,0014.90,0006.29,0005.07
2022-09-01 15:26:00,,0829.5,5.00,0.00,30.1,28.8,00.0,38.9,32.0,22.8,0000.0,0017.03,0006.41,0005.10
2022-09-01 15:27:00,,0829.5,4.98,0.00,30.2,29.0,00.0,38.9,32.0,22.6,0000.0,0017.98,0006.49,0005.14
2022-09-01 15:28:00,,0829.4,5.00,0.00,30.2,29.0,00.0,38.9,32.0,22.4,0000.0,0018.57,0006.50,0005.15
2022-09-01 15:29:00,,0829.5,5.00,0.00,30.2,29.1,00.0,38.9,32.1,22.6,0000.0,0019.11,0006.51,0005.16
2022-09-01 15:30:00,,0829.5,5.01,0.00,30.2,29.2,00.0,38.9,32.1,22.6,0000.0,0018.81,0006.53,0005.20
2022-09-01 15:31:00,,0829.5,5.00,0.00,30.3,28.9,00.0,38.9,32.1,22.5,0000.0,0018.40,0006.54,0005.22
2022-09-01 15:32:00,,0829.5,5.00,0.00,30.2,27.7,00.0,38.9,31.9,22.6,0000.0,0019.75,0006.56,0005.25
2022-09-01 15:33:00,,0829.5,4.99,0.00,30.2,27.0,00.0,38.9,31.9,22.4,0000.0,0019.83,0006.60,0005.29
2022-09-01 15:34:00,,0829.5,4.99,0.00,30.1,27.3,00.0,38.9,31.9,22.6,0000.0,0019.57,0006.59,0005.31
2022-09-01 15:35:00,,0829.5,5.00,0.00,30.1,27.5,00.0,38.8,31.7,22.8,0000.0,0019.81,0006.61,0005.33
2022-09-01 15:36:00,,0829.5,5.01,0.00,30.1,27.9,00.0,38.8,31.8,22.8,0000.0,0019.72,0006.62,0005.33
2022-09-01 15:37:00,,0829.5,5.00,0.00,30.0,28.1,00.0,38.8,31.8,22.8,0000.0,0018.81,0006.59,0005.35
2022-09-01 15:38:00,,0829.5,5.00,0.00,30.1,28.4,00.0,38.8,31.8,22.6,0000.0,0017.46,0006.50,0005.35
2022-09-01 15:39:00,,0829.5,5.00,0.00,30.1,28.6,00.0,38.8,31.9,22.7,0000.0,0017.17,0006.48,0005.35
2022-09-01 15:40:00,,0829.5,5.01,0.00,30.1,28.7,00.0,38.8,31.9,23.0,0000.0,0016.51,0006.51,0005.36
2022-09-01 15:41:00,,0829.5,5.00,0.00,30.1,28.8,00.0,38.8,31.9,22.9,0000.0,0017.35,0006.48,0005.37
2022-09-01 15:42:00,,0829.5,4.98,0.00,30.1,28.9,00.0,38.8,32.0,22.6,0000.0,0018.32,0006.47,0005.37
2022-09-01 15:43:00,,0829.5,5.00,0.00,30.1,29.0,00.0,38.9,32.0,23.0,0000.0,0017.95,0006.45,0005.37
2022-09-01 15:44:00,,0829.4,5.00,0.00,30.2,29.1,00.0,38.9,32.0,22.7,0000.0,0017.93,0006.48,0005.36
2022-09-01 15:45:00,,0829.4,5.00,0.00,30.2,28.7,00.0,38.9,32.0,22.8,0000.0,0018.00,0006.52,0005.37
2022-09-01 15:46:00,,0829.4,5.00,0.00,30.2,27.5,00.0,38.9,31.9,23.0,0000.0,0017.91,0006.54,0005.36
2022-09-01 15:47:00,,0829.4,5.00,0.00,30.1,27.1,00.0,38.8,31.8,22.9,0000.0,0017.87,0006.55,0005.36
2022-09-01 15:48:00,,0829.4,5.00,0.00,30.1,27.3,00.0,38.8,31.8,22.8,0000.0,0017.92,0006.55,0005.36
2022-09-01 15:49:00,,0829.4,5.00,0.00,30.0,27.6,00.0,38.8,31.7,22.6,0000.0,0018.59,0006.59,0005.35
2022-09-01 15:50:00,,0829.5,5.00,0.00,30.0,27.9,00.0,38.7,31.7,22.6,0000.0,0018.75,0006.63,0005.35
2022-09-01 15:51:00,,0829.5,4.99,0.00,30.0,28.2,00.0,38.7,31.8,22.6,0000.0,0018.42,0006.58,0005.34
2022-09-01 15:52:00,,0829.5,5.00,0.00,30.0,28.3,00.0,38.7,31.8,22.6,0000.0,0017.73,0006.54,0005.34
2022-09-01 15:53:00,,0829.5,5.00,0.00,30.0,28.5,00.0,38.7,31.8,22.1,0000.0,0016.29,0006.53,0005.32
2022-09-01 15:54:00,,0829.5,5.00,0.00,30.0,28.7,00.0,38.8,31.9,22.1,0000.0,0015.57,0006.51,0005.29
2022-09-01 15:55:00,,0829.5,5.01,0.00,30.0,28.8,00.0,38.8,31.9,21.7,0000.0,0014.82,0006.44,0005.24
2022-09-01 15:56:00,,0829.5,4.99,0.00,30.1,28.9,00.0,38.8,32.0,22.4,0000.0,0014.19,0006.42,0005.20
2022-09-01 15:57:00,,0829.5,5.00,0.00,30.1,29.0,00.0,38.8,32.0,22.4,0000.0,0013.92,0006.34,0005.15
2022-09-01 15:58:00,,0829.5,4.99,0.00,30.1,28.5,00.0,38.8,32.0,22.5,0000.0,0014.44,0006.28,0005.10
2022-09-01 15:59:00,,0829.5,5.00,0.00,30.1,27.3,00.0,38.8,31.8,22.5,0000.0,0016.66,0006.21,0005.06
